SPACEBEE-33 (46944 NORAD) Tracking and Keplerian Element Data

This shows tracking and keplerian element data for the satellite.

Feedback or suggestion? Click here.




ElementValue
Catalog46944
NameSPACEBEE-33
Epoch Orbit894
Epoch Day17.95322555
Epoch Year2021
RAAN157.3086
Inclination97.3716
Eccentricity0.0016364
Argument of Perigee103.2
Mean Anonmoly257.1061
Mean Motion15.20972192
Decay Rate3.527E-05
L11 46944U 20085R 21017.95322555 .00003527 00000-0 16176-3 0 9990
L22 46944 97.3716 157.3086 0016364 103.2000 257.1061 15.20972192 8949

Live tracking and technical data element details for SPACEBEE-33 (NORAD 46944). SPACEBEE-33 can be tracked NOW for your location showing map with azimuth and elevation plus other details from your city location.

Track the satellite on the map from your city or location and see movement details for azimuth, elevation, latitude, longitude, range, height, and movement on the map or in text.







IsCatalogInMostPopularTable: catalog: 46944, numindb: 30
Update: records affected: 1



GetName: 46944 SPACEBEE-33

Hit Count: updated at: Tue, 19 Jan 2021 02:05:28 GMT